Weather History for Massena, NY

Change the Weather History Date:

Wednesday, February 20, 2013

  Actual Average Record
Temperature  
Mean Temperature 19 °F 19 °F  
Max Temperature 28 °F 29 °F 63 °F (1994)
Min Temperature 10 °F 9 °F -18 °F (1966)
Degree Days  
Heating Degree Days 46 46  
Month to date heating degree days 963 966  
Since 1 July heating degree days 5171 5629  
Moisture  
Dew Point 15 °F    
Average Humidity 69    
Maximum Humidity 84    
Minimum Humidity 53    
Precipitation  
Precipitation 0.01 in 0.07 in 0.56 in (1971)
Month to date precipitation 0.36 1.22  
Year to date precipitation 1.80 3.40  
Sea Level Pressure  
Sea Level Pressure 29.77 in    
Wind  
Wind Speed 16 mph (WSW)    
Max Wind Speed 23 mph    
Max Gust Speed 37 mph    
Visibility 5 miles    
Events Snow    
T = Trace of Precipitation, MM = Missing Value Source: NWS Daily Summary

Daily Weather History Graph

Daily Weather History Graph

Search for Another Location

Airport:

Trip Planner

Search our weather history database for the weather conditions in past years. The results will help you decide how hot, cold, wet, or windy it might be!

Date:

Astronomy

Feb. 20, 2013 Rise Set
Actual Time 6:51 AM EST 5:34 PM EST
Civil Twilight 6:22 AM EST 6:04 PM EST
Nautical Twilight 5:48 AM EST 6:38 PM EST
Astronomical Twilight 5:14 AM EST 7:12 PM EST
Moon 12:46 PM EST (2/20) 3:18 AM EST (2/20)
Length of Visible Light 11h 42m
Length of Day
10h 42m
Waxing Gibbous, 76% of the Moon is Illuminated
Feb 20
Waxing Gibbous
Feb 25
Full
Mar 4
Last Quarter
Mar 11
New
Mar 19
First Quarter

Hourly Weather History & Observations

Time (EST) Temp. Windchill Dew Point Humidity Pressure Visibility Wind Dir Wind Speed Gust Speed Precip Events Conditions
12:53 AM 28.9 °F 17.7 °F 21.9 °F 75% 29.65 in 10.0 mi SSW 15.0 mph - N/A   Mostly Cloudy
1:53 AM 28.9 °F 18.2 °F 21.0 °F 72% 29.65 in 10.0 mi SW 13.8 mph 21.9 mph N/A   Mostly Cloudy
2:53 AM 28.9 °F 17.3 °F 21.0 °F 72% 29.66 in 10.0 mi SW 16.1 mph 24.2 mph N/A   Overcast
3:13 AM 28.4 °F 17.0 °F 21.2 °F 74% 29.64 in 10.0 mi SW 15.0 mph - N/A   Overcast
3:53 AM 28.0 °F 17.0 °F 19.9 °F 72% 29.66 in 10.0 mi SW 13.8 mph - N/A   Overcast
4:01 AM 28.4 °F 17.5 °F 19.4 °F 69% 29.64 in 10.0 mi SW 13.8 mph 26.5 mph N/A   Overcast
4:53 AM 27.0 °F 16.1 °F 19.0 °F 72% 29.67 in 10.0 mi SW 12.7 mph 21.9 mph N/A   Overcast
5:53 AM 26.1 °F 14.5 °F 18.0 °F 71% 29.68 in 7.0 mi SW 13.8 mph 24.2 mph 0.00 in Snow Light Snow
6:53 AM 25.0 °F 11.7 °F 17.1 °F 72% 29.68 in 10.0 mi SW 17.3 mph 24.2 mph 0.00 in   Overcast
7:53 AM 24.8 °F 11.9 °F 17.6 °F 74% 29.67 in 10.0 mi SW 16.1 mph 23.0 mph N/A   Overcast
8:53 AM 24.1 °F 12.0 °F 17.1 °F 75% 29.70 in 4.0 mi WSW 13.8 mph 23.0 mph 0.00 in Snow Light Snow
9:53 AM 25.0 °F 13.1 °F 17.1 °F 72% 29.70 in 5.0 mi WSW 13.8 mph 21.9 mph 0.00 in Snow Light Snow
10:53 AM 26.1 °F 12.0 °F 16.0 °F 66% 29.71 in 10.0 mi WSW 20.7 mph 31.1 mph 0.00 in   Overcast
11:53 AM 27.0 °F 13.5 °F 16.0 °F 63% 29.72 in 10.0 mi WSW 19.6 mph 27.6 mph N/A   Overcast
12:53 PM 27.0 °F 13.5 °F 15.1 °F 61% 29.71 in 10.0 mi West 19.6 mph 26.5 mph N/A   Overcast
1:53 PM 28.0 °F 14.9 °F 14.0 °F 56% 29.71 in 10.0 mi WSW 19.6 mph 27.6 mph N/A   Overcast
2:53 PM 27.0 °F 15.2 °F 14.0 °F 58% 29.72 in 5.0 mi WSW 15.0 mph 26.5 mph 0.00 in Snow Light Snow
3:53 PM 26.1 °F 12.7 °F 16.0 °F 66% 29.74 in 9.0 mi WSW 18.4 mph 29.9 mph 0.00 in   Overcast
4:53 PM 26.1 °F 13.1 °F 15.1 °F 63% 29.74 in 7.0 mi WSW 17.3 mph 29.9 mph 0.00 in Snow Light Snow
5:32 PM 26.6 °F 14.7 °F 15.8 °F 64% 29.73 in 3.0 mi SW 15.0 mph 21.9 mph 0.00 in Snow Light Snow
5:53 PM 25.0 °F 13.1 °F 17.1 °F 72% 29.77 in 3.0 mi WSW 13.8 mph 23.0 mph 0.00 in Snow Light Snow
6:22 PM 24.8 °F 12.9 °F 17.6 °F 74% 29.76 in 2.0 mi WSW 13.8 mph 20.7 mph 0.00 in Snow Light Snow
6:28 PM 24.8 °F 12.4 °F 17.6 °F 74% 29.76 in 1.2 mi WSW 15.0 mph 21.9 mph 0.00 in Snow Light Snow
6:42 PM 24.8 °F 14.0 °F 17.6 °F 74% 29.77 in 1.0 mi WSW 11.5 mph - 0.00 in Snow Light Snow
6:49 PM 24.8 °F 16.1 °F 19.4 °F 80% 29.77 in 0.8 mi WSW 8.1 mph - 0.00 in Snow Light Snow
6:53 PM 24.1 °F 14.4 °F 19.0 °F 81% 29.80 in 0.8 mi West 9.2 mph - 0.00 in Snow Light Snow
7:22 PM 23.0 °F 11.1 °F 19.4 °F 86% 29.79 in 1.0 mi West 12.7 mph 21.9 mph 0.00 in Snow Light Snow
7:53 PM 21.0 °F 7.1 °F 17.1 °F 85% 29.83 in 1.5 mi WNW 16.1 mph 29.9 mph 0.00 in Snow Light Snow
8:08 PM 19.4 °F 5.0 °F 15.8 °F 86% 29.81 in 1.0 mi West 16.1 mph 24.2 mph 0.00 in Snow Light Snow
8:33 PM 19.4 °F 4.1 °F 12.2 °F 74% 29.83 in 2.0 mi WNW 18.4 mph 31.1 mph 0.00 in Snow Light Snow
8:45 PM 17.6 °F -0.6 °F 12.2 °F 79% 29.84 in 1.8 mi WNW 25.3 mph 36.8 mph N/A Snow Light Snow
8:53 PM 18.0 °F 2.2 °F 12.0 °F 78% 29.87 in 1.8 mi WNW 18.4 mph 34.5 mph 0.01 in Snow Light Snow
9:23 PM 17.6 °F 3.7 °F 10.4 °F 73% 29.86 in 1.8 mi WNW 13.8 mph 29.9 mph 0.00 in Snow Light Snow
9:37 PM 15.8 °F -0.6 °F 10.4 °F 79% 29.86 in 1.0 mi West 18.4 mph 27.6 mph 0.00 in Snow Light Snow
9:44 PM 15.8 °F -1.5 °F 10.4 °F 79% 29.86 in 0.8 mi West 20.7 mph 28.8 mph 0.00 in Snow Light Snow
9:53 PM 15.1 °F -3.3 °F 9.0 °F 77% 29.89 in 0.8 mi West 23.0 mph 33.4 mph 0.00 in Snow Light Snow
10:04 PM 15.8 °F -1.9 °F 8.6 °F 73% 29.87 in 1.2 mi West 21.9 mph 28.8 mph 0.00 in Snow Light Snow
10:13 PM 15.8 °F 0.3 °F 8.6 °F 73% 29.88 in 1.2 mi West 16.1 mph 28.8 mph 0.00 in Snow Light Snow
10:20 PM 14.0 °F -0.8 °F 8.6 °F 79% 29.88 in 2.0 mi West 13.8 mph 27.6 mph 0.00 in Snow Light Snow
10:40 PM 12.2 °F -6.3 °F 6.8 °F 79% 29.88 in 1.2 mi WNW 20.7 mph 31.1 mph 0.00 in Snow Light Snow
10:53 PM 12.9 °F -2.2 °F 7.0 °F 77% 29.91 in 1.2 mi WNW 13.8 mph 25.3 mph 0.00 in Snow Light Snow
11:50 PM 10.4 °F -6.0 °F 6.8 °F 85% 29.91 in 1.8 mi West 15.0 mph 25.3 mph 0.00 in Snow Light Snow
11:53 PM 10.9 °F -5.9 °F 6.1 °F 81% 29.93 in 2.0 mi West 16.1 mph 23.0 mph 0.00 in Snow Light Snow
11:59 PM 10.4 °F -7.2 °F 6.8 °F 85% 29.91 in 3.0 mi West 17.3 mph - 0.00 in Snow Light Snow